Flag for Japan Weather past 2 weeks in Kawasaki, Japan

Now
61 °F

Passing clouds.


Feels Like: 61 °F
Forecast: 59 / 65 °F
Wind: 3 mph from West

Location: Tokyo International Airport

Current Time: Apr 19, 2015 at 10:06:08 PM

Latest Report: Apr 19, 2015 at 9:30 PM


Visibility: N/A

Pressure: 30.01 "Hg

Humidity: 72%

Dew point: 52 °F

Location of KawasakiLocation

Historic Weather in Kawasaki — Graph

°F

Kawasaki temperature yesterday

Maximum temperature yesterday: 64 °F (at 1:30 PM)
Minimum temperature yesterday: 50 °F (at 2:30 AM)
Average temperature yesterday: 58 °F

Past Weeks' High & Low Weather Summary

 TemperatureHumidityPressure
High72 °F (Apr 17, 10:30 AM)100% (Apr 5, 8:30 PM)30.45 "Hg (Apr 5, 8:30 PM)
Low37 °F (Apr 8, 8:30 AM)42% (Apr 18, 11:00 AM)29.47 "Hg (Apr 15, 4:30 PM)
Average54 °F78%30.03 "Hg
* Reported Apr 4 9:00 PM — Apr 19 9:00 PM, Kawasaki, Weather by CustomWeather, © 2015

Note: Actual official high and low records may vary slightly from our data, if they occured in-between our weather recording intervals... More about our weather records

Advertising

Kawasaki weather history for previous 24 hours

 ConditionsComfort  
Time TempWeatherWind HumidityBarometerVisibility
9:00 PM
Sun, Apr 19
61 °FPassing clouds.6 mph72%30.01 "HgN/A
8:30 PM61 °FPassing clouds.2 mph72%30.01 "HgN/A
8:00 PM63 °FPassing clouds.3 mph68%30.01 "HgN/A
7:30 PM59 °FPassing clouds.5 mph82%30.01 "HgN/A
7:00 PM59 °FPassing clouds.3 mph88%30.01 "Hg6 mi
6:30 PM61 °FPassing clouds.3 mph72%30.01 "Hg5 mi
6:00 PM61 °FPartly sunny.5 mph72%30.01 "HgN/A
5:30 PM61 °FPartly sunny.6 mph72%30.01 "HgN/A
5:00 PM61 °FPartly sunny.6 mph72%30.01 "HgN/A
4:30 PM61 °FPartly sunny.2 mph72%29.98 "HgN/A
4:00 PM61 °FPartly sunny.9 mph68%29.98 "HgN/A
3:30 PM61 °FPartly sunny.6 mph72%29.98 "HgN/A
3:00 PM59 °FLight rain. Partly sunny.5 mph77%29.98 "HgN/A
2:30 PM59 °FLight rain. Broken clouds.5 mph77%29.98 "Hg6 mi
2:00 PM59 °FLight rain. Broken clouds.3 mph77%30.01 "Hg6 mi
1:30 PM59 °FLight rain. Broken clouds.6 mph77%30.01 "Hg6 mi
1:00 PM59 °FLight rain. Broken clouds.5 mph77%30.01 "Hg6 mi
12:30 PM59 °FLight rain. Broken clouds.3 mph72%30.01 "Hg6 mi
12:00 PM59 °FPartly sunny.5 mph72%30.01 "Hg6 mi
11:30 AM59 °FLight rain. Broken clouds.5 mph72%30.04 "HgN/A
11:00 AM59 °FClear.3 mph72%30.04 "Hg5 mi
10:30 AM59 °FClear.5 mph72%30.04 "Hg6 mi
10:00 AM57 °FPartly sunny.5 mph77%30.04 "Hg6 mi
9:30 AM57 °FPartly sunny.5 mph77%30.04 "Hg6 mi
9:00 AM57 °FPartly sunny.1 mph77%30.04 "HgN/A
8:00 AM57 °FBroken clouds.6 mph72%30.04 "HgN/A
7:30 AM57 °FPassing clouds.5 mph77%30.04 "HgN/A
7:00 AM57 °FSunny.1 mph77%30.04 "Hg10 mi
6:30 AM55 °FSunny.6 mph82%30.04 "Hg10 mi
6:00 AM55 °FSunny.6 mph82%30.01 "Hg10 mi
5:30 AM55 °FSunny.6 mph82%30.04 "Hg10 mi
5:00 AM54 °FClear.6 mph82%30.01 "Hg10 mi
4:30 AM52 °FClear.7 mph82%30.01 "Hg10 mi
4:00 AM52 °FClear.7 mph77%30.01 "Hg10 mi
3:30 AM54 °FClear.8 mph77%30.01 "Hg10 mi
3:00 AM54 °FClear.9 mph77%30.01 "Hg10 mi
2:30 AM55 °FClear.6 mph72%30.01 "Hg10 mi
2:00 AM57 °FClear.8 mph67%30.01 "Hg10 mi
1:30 AM55 °FClear.6 mph67%30.01 "Hg10 mi
1:00 AM57 °FPassing clouds.8 mph63%30.01 "HgN/A
12:30 AM59 °FPassing clouds.9 mph63%30.01 "HgN/A
12:00 AM59 °FClear.10 mph63%30.01 "Hg10 mi
11:30 PM
Sat, Apr 18
59 °FClear.12 mph63%30.01 "Hg10 mi
11:00 PM61 °FClear.14 mph59%30.01 "Hg10 mi
10:30 PM59 °FClear.13 mph63%30.01 "Hg10 mi
10:00 PM59 °FClear.14 mph63%30.01 "Hg10 mi
Weather by CustomWeather, © 2015

See weather overviewHow to use our weather pages